User: anonymous   Login
Location: Rometta
(44.2000°N, 10.0500°E)
Time: 21:28:11
(UTC+00:00)
Language:

Cosmos 2344 - Orbit

View from above orbital plane
View from above orbital plane
View from above satellite
View from above satellite

Ground track
Ground track

The orbit data is extracted from the following two-line orbital elements,

1 24827U 97028A   21104.45195003  .00000156  00000-0  24520-2 0  9991
2 24827  63.3150 132.5963 1034982  45.6695  44.4316 11.07942738965176
Epoch (UTC): 14 April 2021 10:50:48
Eccentricity: 0.1034982
inclination: 63.3150°
perigee height: 1241 km
apogee height: 3001 km
right ascension of ascending node: 132.5963°
argument of perigee: 45.6695°
revolutions per day: 11.07942738
mean anomaly at epoch: 44.4316°
orbit number at epoch: 96517

The dashed part of the orbit path shows where the satellite is in the earth's shadow,  

DLR